Printer-friendly version

IAU Minor Planet Center

Minor Planet Center

MPEC 2002-G22 : 2002 GG1

The following Minor Planet Electronic Circular may be linked-to from your own Web pages, but must not otherwise be redistributed electronically.


Read MPEC 2002-G21 Read MPEC 2002-G23


M.P.E.C. 2002-G22                                Issued 2002 Apr. 5, 18:32 UT

     The Minor Planet Electronic Circulars contain information on unusual
         minor planets and routine data on comets.  They are published
   on behalf of Commission 20 of the International Astronomical Union by the
          Minor Planet Center, Smithsonian Astrophysical Observatory,
                          Cambridge, MA 02138, U.S.A.

             Prepared using the Tamkin Foundation Computer Network

                              MPC@CFA.HARVARD.EDU
          URL http://cfa-www.harvard.edu/iau/mpc.html  ISSN 1523-6714

                                   2002 GG1

Observations:
     K02G01G* C2002 04 04.14149 10 49 39.86 +03 39 30.2          19.8        644
     K02G01G  C2002 04 04.16275 10 49 38.71 +03 37 19.7          19.5        644
     K02G01G  C2002 04 04.18409 10 49 37.51 +03 35 07.5          19.8        644
     K02G01G  C2002 04 04.82991 10 49 23.23 +02 25 23.1                      246
     K02G01G  C2002 04 04.83047 10 49 23.24 +02 25 19.6                      246
     K02G01G  C2002 04 04.83220 10 49 23.15 +02 25 08.6                      246
     K02G01G  C2002 04 04.83270 10 49 23.07 +02 25 05.0                      246
     K02G01G  C2002 04 04.83383 10 49 23.06 +02 24 57.4                      246
     K02G01G  C2002 04 04.85008 10 49 22.15 +02 23 06.8                      557
     K02G01G  C2002 04 04.85102 10 49 22.05 +02 23 00.0          19.5 V      557
     K02G01G WC2002 04 04.85194 10 49 22.01 +02 22 56.7                      557
     K02G01G  C2002 04 05.24250 10 49 11.32 +01 38 36.4          19.0 R      649
     K02G01G  C2002 04 05.24522 10 49 11.12 +01 38 17.0          19.2 R      649
     K02G01G  C2002 04 05.24704 10 49 11.01 +01 38 04.7          19.2 R      649

Observer details:
246 Klet Observatory-KLENOT.  Observers J. Ticha, M. Tichy.  1.06-m
    KLENOT telescope + CCD.
557 Ondrejov.  Observers L. Sarounova, M. Wolf.  0.65-m f/3.6 reflector + CCD.
644 Palomar Mountain/NEAT.  Observers E. F. Helin, S. Pravdo, K. Lawrence,
    M. Hicks, R. Thicksten.  1.2-m Schmidt + CCD.
649 Powell Observatory, Louisburg.  Observers K. Smalley, R. Fredrick,
    R. Trentman.  0.75-m Newtonian + CCD.

Orbital elements:
2002 GG1
Epoch 2002 Mar. 27.0 TT = JDT 2452360.5                 MPC
M 350.03613              (2000.0)            P               Q
n   0.28626159     Peri.  213.58304     -0.73353872     +0.67945645
a   2.2801355      Node     9.27077     -0.59947551     -0.63565142
e   0.5549175      Incl.    5.74304     -0.32023440     -0.36645083
P   3.44           H   23.5           G   0.15
From 14 observations 2002 Apr. 4-5.

Ephemeris:
2002 GG1                 a,e,i = 2.28, 0.55, 6                   q = 1.0148
Date    TT    R. A. (2000) Decl.     Delta      r     Elong.  Phase     V
2002 03 27    10 53.45   +13 01.7    0.119    1.105   153.0    24.2    20.2
2002 03 28    10 52.90   +12 15.0    0.114    1.100   152.4    24.9    20.1
2002 03 29    10 52.37   +11 23.5    0.109    1.095   151.7    25.6    20.1
2002 03 30    10 51.86   +10 26.6    0.104    1.091   151.1    26.3    20.0
2002 03 31    10 51.37   +09 23.7    0.099    1.086   150.5    27.0    19.9
2002 04 01    10 50.90   +08 14.1    0.095    1.082   149.9    27.6    19.8
2002 04 02    10 50.46   +06 56.8    0.090    1.078   149.3    28.3    19.7
2002 04 03    10 50.04   +05 30.8    0.085    1.074   148.7    28.9    19.6
2002 04 04    10 49.66   +03 54.9    0.081    1.070   148.1    29.6    19.5
2002 04 05    10 49.31   +02 07.7    0.077    1.066   147.5    30.2    19.4
2002 04 06    10 49.00   +00 07.6    0.072    1.062   147.0    30.9    19.3
2002 04 07    10 48.74   -02 07.5    0.068    1.059   146.3    31.6    19.1
2002 04 08    10 48.53   -04 39.8    0.064    1.055   145.7    32.4    19.0
2002 04 09    10 48.38   -07 31.6    0.061    1.052   144.9    33.2    18.9
2002 04 10    10 48.30   -10 45.9    0.057    1.048   144.1    34.1    18.8
2002 04 11    10 48.32   -14 25.4    0.054    1.045   143.0    35.2    18.7
2002 04 12    10 48.43   -18 33.2    0.050    1.042   141.7    36.6    18.6
2002 04 13    10 48.68   -23 11.7    0.048    1.040   140.1    38.2    18.5
2002 04 14    10 49.09   -28 22.4    0.045    1.037   138.0    40.3    18.4
2002 04 15    10 49.72   -34 05.0    0.043    1.034   135.6    42.8    18.4
2002 04 16    10 50.63   -40 16.7    0.042    1.032   132.6    45.7    18.4
2002 04 17    10 51.95   -46 51.5    0.041    1.030   129.2    49.1    18.4
2002 04 18    10 53.86   -53 40.5    0.040    1.028   125.4    52.7    18.5
2002 04 19    10 56.70   -60 32.4    0.040    1.026   121.5    56.6    18.6
2002 04 20    11 01.18   -67 15.3    0.041    1.024   117.5    60.5    18.8
2002 04 21    11 08.9    -73 38.6    0.042    1.022   113.7    64.1    18.9
2002 04 22    11 24.5    -79 33.6    0.044    1.021   110.1    67.6    19.1
2002 04 23    12 10.2    -84 50.2    0.046    1.020   106.9    70.6    19.3
2002 04 24    17 01      -88 02.7    0.048    1.019   104.1    73.2    19.5
2002 04 25    21 09      -85 01.0    0.051    1.018   101.7    75.5    19.7
2002 04 26    21 49.9    -81 15.3    0.054    1.017    99.7    77.3    19.9
2002 04 27    22 04.6    -77 49.1    0.058    1.016    98.0    78.8    20.1
2002 04 28    22 12.1    -74 44.6    0.061    1.015    96.6    80.0    20.3
2002 04 29    22 16.5    -71 59.8    0.065    1.015    95.4    80.9    20.4
2002 04 30    22 19.50   -69 32.7    0.068    1.015    94.5    81.6    20.6
2002 05 01    22 21.60   -67 21.0    0.072    1.015    93.8    82.1    20.7
2002 05 02    22 23.15   -65 22.7    0.076    1.015    93.3    82.4    20.8
2002 05 03    22 24.34   -63 36.2    0.080    1.015    92.9    82.5    20.9
2002 05 04    22 25.27   -61 59.8    0.084    1.016    92.7    82.6    21.0
2002 05 05    22 26.00   -60 32.4    0.088    1.016    92.6    82.5    21.1
2002 05 06    22 26.59   -59 12.8    0.092    1.017    92.5    82.3    21.2
2002 05 07    22 27.06   -58 00.1    0.096    1.018    92.6    82.0    21.3
2002 05 08    22 27.44   -56 53.5    0.100    1.019    92.7    81.6    21.4
2002 05 09    22 27.74   -55 52.2    0.104    1.020    92.9    81.2    21.5
2002 05 10    22 27.97   -54 55.7    0.108    1.022    93.2    80.7    21.5
2002 05 11    22 28.13   -54 03.5    0.113    1.023    93.5    80.2    21.6
2002 05 12    22 28.25   -53 15.2    0.117    1.025    93.9    79.6    21.7
2002 05 13    22 28.31   -52 30.2    0.121    1.027    94.3    78.9    21.7
2002 05 14    22 28.32   -51 48.4    0.125    1.029    94.8    78.3    21.8
2002 05 15    22 28.30   -51 09.4    0.129    1.031    95.3    77.6    21.8
2002 05 16    22 28.23   -50 32.9    0.133    1.033    95.8    76.8    21.9
2002 05 17    22 28.12   -49 58.7    0.137    1.035    96.4    76.1    21.9
2002 05 18    22 27.97   -49 26.7    0.141    1.038    97.0    75.3    22.0
2002 05 19    22 27.78   -48 56.6    0.145    1.041    97.6    74.5    22.0
2002 05 20    22 27.55   -48 28.3    0.149    1.044    98.2    73.7    22.0
2002 05 21    22 27.28   -48 01.6    0.153    1.047    98.9    72.8    22.1
2002 05 22    22 26.98   -47 36.4    0.157    1.050    99.6    72.0    22.1
2002 05 23    22 26.64   -47 12.6    0.161    1.053   100.3    71.1    22.1
2002 05 24    22 26.26   -46 50.2    0.164    1.056   101.0    70.2    22.2
2002 05 25    22 25.85   -46 28.9    0.168    1.060   101.8    69.3    22.2
2002 05 26    22 25.39   -46 08.8    0.172    1.064   102.5    68.4    22.2

Timothy B. Spahr             (C) Copyright 2002 MPC           M.P.E.C. 2002-G22

Read MPEC 2002-G21 Read MPEC 2002-G23


Our Web policy. Index to the CBAT/MPC/ICQ pages.


Valid HTML 4.01!